Hourly Data Report for September 03, 2010

IQALUIT CLIMATE
NUNAVUT

63°44'50.000" N
68°32'40.000" W
33.50 m
2402592
71321
XFB

Download Data

Hourly Data (September 2010)
Hourly Data Report for September 3, 2010
TIME
LST
Temp Definition
°C
Dew Point Definition
°C
Rel Hum Definition
%
Precip. Amount Definition
mm

Wind Dir Definition
10's deg

Wind Spd Definition
km/h
Visibility Definition
km
Stn Press Definition
kPa
Hmdx Definition


Wind Chill Definition


Weather Definition


00:00 3.2 2.7 97   33 9   100.27     LegendNANA
01:00 3.2 2.7 97   33 9   100.28     LegendNANA
02:00 3.0 2.8 99   34 9   100.27     LegendNANA
03:00 3.3 2.9 97   33 7   100.28     LegendNANA
04:00 3.9 3.3 96   33 15   100.30     LegendNANA
05:00 5.1 4.3 95   32 15   100.34     LegendNANA
06:00 7.6 5.6 87     0   100.40     LegendNANA
07:00 8.4 5.8 84   31 11   100.41     LegendNANA
08:00 10.2 6.0 75   32 17   100.42     LegendNANA
09:00 12.1 5.8 65   32 17   100.42     LegendNANA
10:00 13.4 4.6 55   32 17   100.43     LegendNANA
11:00 14.7 3.1 46   6 17   100.43     LegendNANA
12:00 14.4 2.2 44   8 13   100.48     LegendNANA
13:00 13.9 4.1 52   7 20   100.56     LegendNANA
14:00 13.4 4.0 53   7 20   100.61     LegendNANA
15:00 13.2 4.4 55   9 15   100.68     LegendNANA
16:00 11.4 4.7 63   15 9   100.74     LegendNANA
17:00 9.4 4.8 73   13 7   100.81     LegendNANA
18:00 8.8 4.5 74   16 6   100.88     LegendNANA
19:00 8.9 4.2 72   17 2   100.98     LegendNANA
20:00 7.8 4.2 78   14 9   101.04     LegendNANA
21:00 6.6 3.8 82   14 9   101.08     LegendNANA
22:00 6.5 3.8 83   13 9   101.09     LegendNANA
23:00 5.7 3.8 88   12 6   101.12     LegendNANA

Notes on Data Quality.

Legend

  • E = Estimated
  • M = Missing
  • NA = Not Available*
  • [empty] = Indicates an unobserved value
Date modified: